Regional Weather Roundup
Issued by NWS Charleston, SC

Current Version | Previous Version | Text Only | Print | Product List | Glossary Off
Versions: 1 2 3 4 5 6 7 8 9 10 11 12 13 14 15 16 17 18 19 20 21 22 23 24 25 26 27 28 29 30 31 32 33 34 35 36 37 38 39 40 41 42 43 44 45 46 47 48 49 50

000
ASUS42 KCHS 250725
RWRCHS

REGIONAL WEATHER ROUNDUP
NATIONAL WEATHER SERVICE CHARLESTON SC
300 AM EDT FRI JUL 25 2014

NOTE: "FAIR" INDICATES FEW OR NO CLOUDS BELOW 12,000 FEET WITH NO
SIGNIFICANT WEATHER AND/OR OBSTRUCTIONS TO VISIBILITY.

NOT ALL STATIONS ARE QUALITY CONTROLLED BY THE NATIONAL
WEATHER SERVICE. USE DATA WITH CAUTION...ESPECIALLY
DEWPOINT OBSERVATIONS.

SCZ027-030-031-034>040-042>050-250800-
...SOUTH CAROLINA...

CITY           SKY/WX    TMP DP  RH WIND       PRES   REMARKS
N CHARLESTON   PTCLDY    83  77  82 SW8       29.95S HX  92
WATERFRONT PRK   N/A     84 N/A N/A W6          N/A
FORT JOHNSON   NOT AVBL
MOUNT PLEASANT FAIR      82  81  94 SW5       29.94F HX  95
JOHNS ISLAND   MOSUNNY   82  72  69 W6        29.95F
PINOPOLIS        N/A     82  75  78 SW8       29.88R
MONCKS CORNER    N/A     79  77  94 SW3       29.94F
SUMMERVILLE    NOT AVBL
BEAUFORT MCAS  CLOUDY    81  71  71 NW8       29.96S
BEAUFORT ARPT  CLOUDY    81  73  78 W9        29.96S
HILTON HEAD IS PTCLDY    82  73  74 SW9       29.97F
GEORGETOWN     NOT AVBL
WALTERBORO     SUNNY     79  79 100 W6        29.96S
ORANGEBURG     CLOUDY    78  72  81 CALM      29.96R
BARNWELL       FAIR      77  72  83 SW3       29.97S
AIKEN          CLOUDY    75  75 100 CALM      30.00S
MANNING        CLOUDY    79  79 100 SW6       29.94S
KINGSTREE      NOT AVBL
COLUMBIA       CLOUDY    79  71  76 CALM      29.95R
SUMTER         PTCLDY    75  74  97 NE3       29.94S
FLORENCE       PTCLDY    74  72  93 NW5       29.95S
MYRTLE BEACH   PTCLDY    75  72  88 NW5       29.95S
N MYRTLE BEACH TSTM      73  71  93 VRB3      29.96R FOG

$$

GAZ063-065-086>088-099>101-113>116-118-119-134-136>141-150-250800-
...GEORGIA...

CITY           SKY/WX    TMP DP  RH WIND       PRES   REMARKS
SAVANNAH ARPT  CLEAR     79  71  76 SW9       29.98S
HUNTER AAF     CLEAR     78  72  81 SW6       29.97R
FORT STEWART   CLEAR     78  72  84 SW6       29.98S
STATESBORO     NOT AVBL
SYLVANIA       SUNNY     78  75  91 CALM      29.99R
CLAXTON        FAIR      79  77  94 SW3       29.98F
THOMSON        PTCLDY    74  74 100 CALM      30.01S
AUGUSTA-BUSH   MOCLDY    73  71  93 CALM      29.96R
AUGUSTA-DANIEL PTCLDY    79  72  79 W5        29.98R
SWAINSBORO     FAIR      79  77  94 CALM      29.99S
VIDALIA          N/A     77  73  88 SW6       29.99S
ALMA           CLEAR     75  73  93 W3        30.00R
WAYCROSS       CLEAR     78  77  97 CALM      30.00S
JESUP          NOT AVBL
BRUNSWICK      CLEAR     79  72  78 CALM      30.00S
SAINT SIMONS   CLEAR     79  73  82 SW7       30.00S

$$

SCZ027-028-034-036>038-045-046-048>050-GAZ119-141-250800-
...LAKE AND SUPPLEMENTAL COASTAL OBSERVATIONS...

STATION/POSITION TIME  TEMP    WIND        PRES    WAVE   SWELL
                       AIR SEA DIR/SP/G            HT/PER HT/PER/DIR
                 (UTC) (F)     (DEG/KT/KT) (MB)    (FT/S) (FT/S/D)
UPR LAKE MARION  NOT AVBL
WINYAH BAY       0700   77     220/  3     1013.0S
LAKE MURRAY      0700   78     340/  1/  3 1013.9S
ACE BASIN NERRS  0700   81     240/  2     1015.0S
FORT PULASKI     0700   80     240/  5/  8 1015.4R
SAPELO ISLAND    0700   79     260/  6     1016.0S

$$

ANZ835-935-AMZ111-154-330-350-352-354-374-450-454-472-250800-
...C-MAN AND BUOY OBSERVATIONS...

STATION/POSITION TIME  TEMP    WIND        PRES    WAVE   SWELL
                       AIR SEA DIR/SP/G            HT/PER HT/PER/DIR
                 (UTC) (F)     (DEG/KT/KT) (MB)    (FT/S) (FT/S/D)
FOLLY BEACH CMAN 0700   82     250/  5/  7 1014.6S
BUOY 41004       0700   83 83  220/ 19/ 23 1013.3F   5/ 5   2/ 8
BUOY 41008       0700   83 84  260/ 17/ 19 1015.3F   3/ 4
5E ST. MARYS GA  0700      85                N/A     3/ 5
FRYING PAN BUOY  NOT AVBL
BUOY 41025       0700          VRB 10/ 12  1012.0F   3/ 7   2/170/ 7
CAPE LOOKOUT NC  0700   73     270/  1/  2 1013.0F
BUOY 41002       0611   82 82  230/ 19/ 23 1016.3R   5/ 6   2/130/ 9
BUOY 41010       0700   83 83  200/ 12/ 14 1017.5R   3/ 4   2/130/ 7
BUOY 41012       NOT AVBL
ST AUGUSTINE FL  0700   78     240/  5/  6 1017.1F
CAPERS NEARSHORE 0600   84     250/ 16/ 19   N/A
FRIPP NEARSHORE  NOT AVBL


$$


USA.gov is the U.S. government's official web portal to all federal, state and local government web resources and services.